Find Starlink 32834

NORAD ID: 62875 Int'l Des: 2025-022 Owner: SPXS Country: US Constellation: starlink operational
LEOCIRCULAR

实时位置

正在加载3D地球...

关于 Starlink 32834

正在加载描述...

即将过境

Passes for default location (London). Set your location on the main map for personalized predictions.

高度历史

Loading altitude history...

两行轨道根数

1 62875U 25022X 26104.89164074 .00013874 00000-0 47957-3 0 9999
2 62875 53.1576 321.3984 0001781 82.7495 277.3708 15.30208331 67440
Epoch: Apr 14, 2026 • Age: 5 hours

当前状态

高度 475.1 km
速度 7.63 km/s
星下点 21.50°N, 100.98°E
发射日期 Feb 2, 2025
运行时间 1.1 years
类型 internet

技术详情

分类 Payload
质量 730.00 kg
干质量 700.00 kg
总质量 730.00 kg
长度 0.30 m
直径 4.10 m
跨度 29.00 m
形状 Box + pan
制造商 SPXS
平台类型 Starlink V2M
阶段状态 In Orbit
所有者/国家 SPXS/US

Most Searched